FW4407 Weather Reports


time (UTC)temp
F
wind
direction
speed
knots
gust
knots
rain 1hr
in
rain 24hr
in
rain mn
in
humidity
%
barometer
mb
20260508105029 71 0.0 0.0 0.00 0.00 0.00 49 1017.0
20260508104017 71 268 0.0 1.7 0.00 0.00 0.00 50 1017.2
20260508103022 70 288 0.9 4.3 0.00 0.00 0.00 50 1017.4
20260508102026 70 0.0 0.0 0.00 0.00 0.00 51 1017.3
20260508101015 70 271 0.0 4.3 0.00 0.00 0.00 52 1017.4
20260508100019 70 243 0.0 4.3 0.00 0.00 0.00 52 1017.5
20260508095045 71 262 0.9 4.3 0.00 0.00 0.00 52 1017.8
20260508094031 71 176 0.0 1.7 0.00 0.00 0.00 51 1018.1
20260508093038 70 280 0.0 4.3 0.00 0.00 0.00 49 1017.9
20260508092023 70 250 1.7 7.0 0.00 0.00 0.00 50 1018.0
20260508091028 69 219 0.9 7.0 0.00 0.00 0.00 51 1018.0
20260508090016 69 248 0.0 4.3 0.00 0.00 0.00 53 1018.1
20260508085020 68 235 0.9 7.0 0.00 0.00 0.00 55 1018.1
20260508084025 68 325 0.0 1.7 0.00 0.00 0.00 55 1018.2
20260508083031 68 0.0 0.0 0.00 0.00 0.00 53 1018.1
20260508082019 69 317 0.0 1.7 0.00 0.00 0.00 53 1018.2
20260508081024 69 235 0.0 4.3 0.00 0.00 0.00 52 1018.3
20260508080028 69 336 0.0 4.3 0.00 0.00 0.00 50 1018.4
20260508075016 68 253 1.7 7.0 0.00 0.00 0.00 48 1018.5
20260508074021 68 234 0.0 4.3 0.00 0.00 0.00 47 1018.5
20260508073027 68 201 0.0 4.3 0.00 0.00 0.00 46 1018.5
20260508072032 68 263 0.9 4.3 0.00 0.00 0.00 46 1018.7
20260508071019 68 245 0.9 4.3 0.00 0.00 0.00 45 1018.8
20260508070025 67 252 0.9 4.3 0.00 0.00 0.00 44 1019.1
20260508065030 67 259 0.0 1.7 0.00 0.00 0.00 44 1018.8
20260508064018 67 246 1.7 7.0 0.00 0.00 0.00 44 1018.8
20260508063023 67 258 0.0 1.7 0.00 0.00 0.00 46 1018.5
20260508062028 67 309 0.0 1.7 0.00 0.00 0.00 47 1018.5
20260508061015 67 271 0.0 1.7 0.00 0.00 0.00 48 1018.4
20260508060020 67 298 0.0 1.7 0.00 0.00 0.00 49 1017.9
20260508055026 67 278 0.0 4.3 0.00 0.00 0.00 50 1017.6
20260508054031 67 242 0.0 1.7 0.00 0.00 0.00 50 1017.4
20260508053038 66 0.0 0.0 0.00 0.00 0.00 50 1017.1
20260508052024 66 0.0 0.0 0.00 0.00 0.00 51 1016.9
20260508051029 66 0.0 0.0 0.00 0.00 0.00 51 1016.8
20260508050017 66 0.0 0.0 0.00 0.00 0.00 51 1016.8
20260508045021 65 0.0 0.0 0.00 0.00 0.00 52 1016.8
20260508044027 65 0.0 0.0 0.00 0.00 0.00 51 1016.8
20260508043052 65 0.0 0.0 0.00 0.00 0.00 50 1016.3
20260508042019 65 0.0 0.0 0.00 0.00 0.00 52 1016.2
20260508041025 65 0.0 0.0 0.00 0.00 0.00 53 1016.1
20260508040050 65 0.0 0.0 0.00 0.00 0.00 53 1016.0
20260508035017 65 0.0 0.0 0.00 0.00 0.00 54 1015.9
20260508034042 65 0.0 0.0 0.00 0.00 0.00 54 1015.9
20260508033028 65 0.0 0.0 0.00 0.00 0.00 54 1015.9
20260508032056 65 0.0 0.0 0.00 0.00 0.00 54 1015.9
20260508031020 64 0.0 0.0 0.00 0.00 0.00 52 1015.8
20260508030025 64 117 0.0 1.7 0.00 0.00 0.00 56 1015.8
20260508025031 64 0.0 0.0 0.00 0.00 0.00 58 1015.9
20260508024018 64 0.0 0.0 0.00 0.00 0.00 58 1015.9
20260508023043 64 0.0 0.0 0.00 0.00 0.00 59 1016.0
20260508022029 64 0.0 0.0 0.00 0.00 0.00 60 1015.9
20260508021016 64 0.0 0.0 0.00 0.00 0.00 61 1015.9
20260508020021 64 0.0 0.0 0.00 0.00 0.00 61 1016.0
20260508015026 64 0.0 0.0 0.00 0.00 0.00 61 1015.9
20260508014031 64 0.0 0.0 0.00 0.00 0.00 62 1016.2
20260508013019 64 0.0 0.0 0.00 0.00 0.00 63 1016.2
20260508012024 63 0.0 0.0 0.00 0.00 0.00 63 1016.2
20260508011030 63 0.0 0.0 0.00 0.00 0.00 63 1016.5
20260508010017 63 0.0 0.0 0.00 0.00 0.00 64 1016.5
20260508005023 64 0.0 0.0 0.00 0.00 0.00 64 1016.7
20260508004027 64 0.0 0.0 0.00 0.00 0.00 64 1016.6
20260508003016 64 0.0 0.0 0.00 0.00 0.00 64 1016.6
20260508002020 64 0.0 0.0 0.00 0.00 0.00 64 1016.8
20260508001025 64 0.0 0.0 0.00 0.00 0.00 64 1016.7
20260508000030 64 0.0 0.0 0.00 0.00 0.00 64 1016.9
20260507235038 64 0.0 0.0 0.00 0.00 0.00 64 1017.1
20260507234043 64 0.0 0.0 0.00 0.00 0.00 63 1017.3
20260507233028 64 0.0 0.0 0.00 0.00 0.00 62 1017.4
20260507232016 64 0.0 0.0 0.00 0.00 0.00 61 1017.3
20260507231021 64 0.0 0.0 0.00 0.00 0.00 61 1017.3
20260507230026 64 0.0 0.0 0.00 0.00 0.00 60 1017.5
20260507225031 65 0.0 0.0 0.00 0.00 0.00 60 1017.6
20260507224039 65 0.0 0.0 0.00 0.00 0.00 59 1017.6
20260507223024 65 0.0 0.0 0.00 0.00 0.00 58 1017.6
20260507222029 65 0.0 0.0 0.00 0.00 0.00 57 1017.6
20260507221018 65 0.0 0.0 0.00 0.00 0.00 56 1017.6
20260507220022 65 0.0 0.0 0.00 0.00 0.00 55 1017.7
20260507215017 65 0.0 0.0 0.00 0.00 0.00 54 1017.9
20260507214022 66 0.0 0.0 0.00 0.00 0.00 52 1017.9
20260507213047 66 278 0.0 1.7 0.00 0.00 0.00 51 1017.9
20260507212016 66 0.0 0.0 0.00 0.00 0.00 51 1018.2
20260507211020 66 0.0 0.0 0.00 0.00 0.00 50 1018.3
20260507210025 66 0.0 0.0 0.00 0.00 0.00 50 1018.1
20260507205030 66 0.0 0.0 0.00 0.00 0.00 51 1018.1
20260507204038 66 0.0 0.0 0.00 0.00 0.00 51 1017.9
20260507203023 66 0.0 0.0 0.00 0.00 0.00 50 1017.9
20260507202033 66 0.0 0.0 0.00 0.00 0.00 50 1018.0
20260507201016 66 157 0.0 4.3 0.00 0.00 0.00 49 1017.9
20260507200021 66 0.0 0.0 0.00 0.00 0.00 48 1017.9
20260507195046 66 0.0 0.0 0.00 0.00 0.00 48 1018.0
20260507194031 67 132 0.9 4.3 0.00 0.00 0.00 47 1017.7
20260507193019 67 131 0.9 4.3 0.00 0.00 0.00 47 1017.8
20260507192024 67 0.0 0.0 0.00 0.00 0.00 48 1017.6
20260507191029 67 0.0 0.0 0.00 0.00 0.00 49 1017.7
20260507190017 67 0.0 0.0 0.00 0.00 0.00 49 1017.8
20260507185022 67 0.0 0.0 0.00 0.00 0.00 50 1017.9
20260507184027 67 0.0 0.0 0.00 0.00 0.00 49 1017.7
20260507183015 68 0.0 0.0 0.00 0.00 0.00 49 1017.6
20260507182040 68 0.0 0.0 0.00 0.00 0.00 49 1017.6
20260507181045 68 0.0 0.0 0.00 0.00 0.00 47 1017.5
20260507180030 68 0.0 0.0 0.00 0.00 0.00 47 1017.5
20260507175038 69 290 0.0 1.7 0.00 0.00 0.00 46 1017.3
20260507174043 69 15 0.0 1.7 0.00 0.00 0.00 46 1017.5
20260507173048 70 0.0 0.0 0.00 0.00 0.00 47 1017.5
20260507172016 71 0.0 0.0 0.00 0.00 0.00 46 1017.5
20260507171021 71 210 0.0 1.7 0.00 0.00 0.00 36 1017.1
20260507170026 71 0.0 0.0 0.00 0.00 0.00 37 1016.9
20260507165031 72 0.0 0.0 0.00 0.00 0.00 36 1016.8
20260507164039 72 0.0 0.0 0.00 0.00 0.00 36 1016.7
20260507163024 72 185 0.0 4.3 0.00 0.00 0.00 35 1016.8
20260507162029 73 251 0.0 4.3 0.00 0.00 0.00 34 1016.9
20260507161017 73 235 0.0 1.7 0.00 0.00 0.00 34 1017.0
20260507160022 74 254 0.9 4.3 0.00 0.00 0.00 35 1016.9
20260507155027 75 230 0.0 4.3 0.00 0.00 0.00 35 1017.0
20260507154015 75 253 0.9 7.0 0.00 0.00 0.00 33 1017.1
20260507153020 76 244 2.6 8.7 0.00 0.00 0.00 32 1017.3
20260507152025 76 224 1.7 7.0 0.00 0.00 0.00 32 1017.5
20260507151030 76 240 0.9 7.0 0.00 0.00 0.00 32 1017.2
20260507150018 76 253 0.9 8.7 0.00 0.00 0.00 32 1017.4
20260507145023 76 254 0.9 8.7 0.00 0.00 0.00 32 1017.2
20260507144028 76 223 1.7 7.0 0.00 0.00 0.00 32 1017.3
20260507143016 77 240 2.6 8.7 0.00 0.00 0.00 32 1017.3
20260507142021 77 240 2.6 8.7 0.00 0.00 0.00 31 1017.2
20260507141046 78 240 2.6 8.7 0.00 0.00 0.00 30 1017.1
20260507140031 79 237 2.6 8.7 0.00 0.00 0.00 29 1016.9
20260507135019 79 229 2.6 8.7 0.00 0.00 0.00 29 1016.9
20260507134024 78 236 2.6 8.7 0.00 0.00 0.00 29 1016.8
20260507133029 77 237 0.9 7.0 0.00 0.00 0.00 30 1016.8
20260507132017 76 234 1.7 11.3 0.00 0.00 0.00 37 1016.8
20260507131042 75 278 0.9 7.0 0.00 0.00 0.00 41 1016.8
20260507130027 75 258 0.9 4.3 0.00 0.00 0.00 44 1017.1
20260507125015 76 269 1.7 7.0 0.00 0.00 0.00 44 1017.2
20260507124020 76 249 1.7 8.7 0.00 0.00 0.00 43 1017.2
20260507123045 77 245 1.7 7.0 0.00 0.00 0.00 45 1017.2
20260507122030 78 266 1.7 7.0 0.00 0.00 0.00 44 1017.5
20260507121018 78 258 1.7 8.7 0.00 0.00 0.00 43 1017.5
20260507120023 78 20 0.9 4.3 0.00 0.00 0.00 43 1017.5
20260507115028 78 270 1.7 8.7 0.00 0.00 0.00 46 1017.6
20260507114016 78 239 1.7 7.0 0.00 0.00 0.00 45 1017.6
20260507113041 77 244 1.7 7.0 0.00 0.00 0.00 44 1017.6
20260507112027 77 226 2.6 7.0 0.00 0.00 0.00 46 1017.9
20260507111031 77 283 2.6 8.7 0.00 0.00 0.00 49 1017.6
20260507110039 77 275 0.9 7.0 0.00 0.00 0.00 51 1017.6